Vorticity
nan nan nan nan nan nan nan nan nan nan nan nan nan nan nan nan nan nan nan nan nan nan nan nan nan nan nan nan nan nan nan nan nan nan nan nan nan nan nan nan nan nan nan
nan 8 6 5 6 4 6 6 5 5 5 5 4 5 4 5 5 5 5 5 6 5 5 5 5 5 5 5 4 4 4 4 4 6 6 4 4 5 4 4 8 6 nan
nan 6 6 5 5 5 5 5 6 5 5 4 3 4 5 5 5 4 4 5 5 5 5 5 4 4 4 3 4 3 2 3 4 4 3 3 5 5 5 4 6 4 nan
nan 6 6 5 5 6 5 5 5 5 5 5 5 5 4 4 5 4 4 5 5 5 5 5 5 4 3 3 4 3 0 2 4 3 4 3 5 6 5 5 4 4 nan
nan 5 7 7 5 4 5 4 6 7 6 5 4 4 5 5 5 4 4 5 6 6 5 4 4 3 3 4 4 3 3 3 4 5 4 5 3 7 5 5 5 4 nan
nan 5 6 6 5 5 5 5 4 4 6 6 6 6 6 4 4 4 4 5 6 5 5 4 4 4 4 4 3 3 3 3 3 6 3 7 8 5 5 4 3 5 nan
nan 7 6 5 6 5 5 3 3 5 6 4 5 6 5 5 5 5 5 4 5 5 4 4 4 4 4 4 4 3 3 3 5 4 4 7 12 5 4 4 4 5 nan
nan 6 5 5 6 6 5 5 5 5 4 5 6 5 5 5 5 5 4 4 4 5 6 5 4 4 4 4 4 3 4 5 6 5 5 5 11 9 5 5 5 5 nan
nan 6 7 6 3 5 7 5 5 5 6 5 5 5 6 5 5 5 5 5 5 5 5 4 5 4 4 4 5 5 6 5 4 6 7 8 7 10 7 5 5 5 nan
nan 6 6 6 6 5 4 6 7 5 5 5 6 5 5 5 5 5 5 6 5 5 5 5 5 5 5 5 5 5 6 6 6 6 7 7 4 11 11 6 6 5 nan
nan 7 7 6 5 6 6 5 6 7 6 5 5 4 4 6 7 6 5 6 6 6 6 6 5 6 6 6 7 7 6 6 8 7 7 7 6 7 9 8 7 6 nan
nan 6 5 6 6 4 6 8 7 6 7 7 6 6 5 6 7 8 8 7 7 6 6 6 6 6 5 6 9 8 5 6 7 7 8 7 5 6 7 8 8 7 nan
nan 7 8 6 7 5 4 5 6 8 8 10 9 6 5 6 7 7 7 8 9 7 6 8 7 7 6 5 5 5 6 6 7 8 9 9 6 5 7 7 8 9 nan
nan 6 6 6 6 5 4 6 5 6 6 8 10 6 5 6 7 6 7 7 7 8 8 6 7 8 7 5 5 5 5 6 5 7 11 11 7 6 6 6 7 10 nan
nan 7 8 6 5 7 4 4 7 7 7 7 8 8 5 5 6 6 6 7 7 7 7 7 6 7 8 8 7 7 6 6 4 5 10 12 10 8 7 7 7 9 nan
nan 8 9 8 7 5 6 4 5 8 8 7 8 9 6 4 7 7 7 7 7 7 6 7 7 7 7 8 7 7 7 7 8 5 5 11 14 9 9 8 8 8 nan
nan 8 9 10 8 7 5 5 6 7 8 7 9 10 8 6 5 6 6 7 7 8 8 7 7 7 7 8 8 8 9 8 7 7 6 7 13 15 12 10 9 8 nan
nan 8 7 9 8 7 6 6 7 7 7 8 8 11 10 8 6 5 6 7 7 7 8 8 8 7 7 7 9 9 8 9 9 9 7 6 6 10 16 13 10 9 nan
nan 9 8 9 8 6 7 8 8 8 7 8 8 10 11 10 7 6 6 7 7 6 7 8 7 8 7 8 8 8 8 8 9 10 9 9 7 5 6 14 14 12 nan
nan 12 9 9 8 8 7 7 8 8 8 9 8 9 10 11 9 5 7 9 8 7 7 8 8 7 7 8 8 9 8 8 9 10 7 8 11 10 7 6 10 16 nan
nan 16 13 8 7 7 8 8 9 8 7 7 11 10 7 8 11 8 8 10 9 9 8 7 8 8 8 8 8 10 12 12 10 9 10 9 10 11 10 9 8 8 nan
nan 16 17 14 12 6 4 7 7 10 9 10 11 13 10 7 7 9 7 7 9 10 11 10 7 6 8 9 6 9 12 13 15 11 10 10 9 11 12 10 7 7 nan
nan 15 16 17 17 13 6 4 6 7 10 12 10 11 13 10 7 6 5 7 8 5 8 10 10 8 7 9 9 3 6 6 10 11 10 10 10 9 9 10 10 9 nan
nan 14 15 16 18 18 13 7 8 4 6 8 11 12 15 12 6 5 5 7 6 7 8 8 10 10 10 6 10 9 4 6 3 7 10 8 11 8 9 10 10 11 nan
nan 13 15 15 16 18 15 9 6 6 6 11 15 14 11 11 9 6 4 8 9 8 10 10 10 9 7 9 7 10 11 8 8 8 5 6 9 9 10 8 8 10 nan
nan nan nan nan nan nan nan nan nan nan nan nan nan nan nan nan nan nan nan nan nan nan nan nan nan nan nan nan nan nan nan nan nan nan nan nan nan nan nan nan nan nan nan
CAPE
28 446 634 702 873 1014 1110 1215 1347 1450 1599 1677 1594 1549 1568 1630 1813 1961 1966 1930 1838 1398 1150 999 961 937 958 1040 1161 1221 1217 1332 1449 1208 619 535 551 642 747 753 753 655 1028
74 455 508 683 855 869 980 1045 1145 1305 1440 1453 1385 1380 1443 1609 1792 1783 1781 1766 1703 1177 1108 1061 1173 975 887 916 932 931 841 948 904 849 507 419 416 484 573 442 333 490 504
155 394 306 558 773 846 840 974 1151 1247 1290 1260 1238 1268 1298 1469 1555 1602 1660 1651 1652 1143 1062 1000 1140 1046 836 799 979 888 1067 993 685 419 325 290 341 391 445 404 361 301 200
239 331 114 477 626 798 857 994 1106 1278 1308 1215 1240 1273 1227 1279 1292 1323 1475 1494 1539 1142 1003 915 896 1017 911 1044 1038 1001 916 567 523 436 421 286 215 566 387 393 366 206 114
192 209 132 367 494 746 810 971 1106 1139 1084 1095 1154 1274 1233 1137 1007 1089 1354 1310 1464 1141 1021 929 824 689 718 617 596 563 428 244 124 128 488 740 393 439 569 389 303 317 290
200 129 178 185 398 668 789 964 1157 1143 897 864 930 1093 1147 1038 1060 1211 1200 1274 1402 1258 1049 1027 931 772 464 324 279 223 101 21 0 178 49 79 699 407 553 553 274 250 255
236 196 281 107 250 562 742 889 980 985 875 856 940 983 1038 1155 1173 1088 975 1168 1285 1396 1415 1356 1246 756 394 206 139 73 22 0 93 47 4 0 899 670 689 462 349 269 282
261 284 286 180 224 428 581 616 662 674 618 716 908 996 1017 1035 1068 893 745 922 1172 1283 1280 1324 1115 854 497 309 207 81 17 0 0 0 0 0 2 567 1035 763 518 460 296
291 354 462 391 271 249 341 342 390 442 403 455 653 750 839 741 697 680 637 693 825 994 1091 1079 945 759 576 388 251 120 20 1 0 0 0 0 0 116 912 1605 580 413 313
332 405 480 472 373 299 322 185 211 307 282 288 373 496 544 483 443 435 426 508 657 700 719 783 734 639 479 343 210 94 22 3 0 0 0 0 0 22 778 1399 1184 837 582
305 403 439 403 414 416 301 291 161 193 195 189 255 295 365 446 404 387 281 275 480 506 533 567 512 452 374 295 224 109 27 8 0 0 0 0 0 0 345 1227 1536 1156 833
170 278 382 445 434 440 196 243 386 337 336 345 309 350 382 444 419 270 264 234 309 329 312 332 366 348 301 256 209 73 98 23 5 0 0 0 0 0 0 375 1366 1598 1067
4 91 224 455 509 433 320 337 363 347 366 405 455 448 368 327 359 294 324 313 333 261 301 233 237 254 166 207 124 107 19 12 0 0 0 0 0 0 5 178 412 1195 1491
0 0 35 225 460 533 535 341 374 509 506 363 326 464 393 370 284 240 237 209 305 216 248 292 176 163 182 141 114 72 33 0 0 0 0 0 0 0 0 52 448 1230 1727
0 0 0 65 317 416 441 370 433 549 407 358 302 380 356 293 271 183 146 152 111 123 145 156 102 72 33 22 4 0 0 7 5 4 6 0 0 0 0 7 127 710 1847
0 0 0 0 184 271 362 425 550 407 441 319 235 249 350 305 297 197 164 93 71 57 50 51 19 2 0 0 0 6 23 68 85 92 111 89 0 0 0 0 102 588 1040
132 50 4 0 1 185 221 290 325 257 184 202 192 259 304 362 300 194 121 72 40 17 19 9 18 0 0 3 29 90 120 136 139 153 132 144 137 0 0 0 47 265 742
334 327 274 42 0 6 83 161 146 166 193 140 192 212 263 297 312 211 123 85 56 28 0 17 17 16 17 33 68 95 138 189 236 221 211 190 229 302 79 0 0 84 257
529 618 609 720 480 68 23 12 68 126 144 171 191 272 184 223 246 213 149 108 107 46 44 47 52 55 74 149 182 224 272 260 274 268 326 421 457 270 380 301 0 0 33
90 666 1006 994 890 706 207 19 3 3 35 97 161 194 188 180 180 241 172 155 101 66 83 114 129 197 217 388 361 386 569 531 507 527 587 619 664 679 539 531 570 358 0
0 1 791 1015 1214 1070 617 221 71 62 32 17 64 119 78 23 99 147 24 8 64 101 178 278 387 463 683 531 654 1015 1027 943 911 639 721 833 833 751 705 705 746 612 479
0 0 0 559 1145 1268 986 639 450 395 343 231 132 185 76 33 0 0 1 3 49 96 217 476 609 967 1001 1061 1265 1268 1213 1428 1362 985 844 727 685 665 708 617 661 613 625
83 9 0 0 287 1213 1221 1042 893 949 761 547 492 310 237 129 79 105 6 23 101 139 334 525 784 892 1595 1025 762 1218 849 1519 1484 1484 1357 1071 979 795 713 883 791 617 467
108 39 0 0 0 738 1404 1292 1115 1051 1133 1227 906 671 511 508 403 173 110 319 350 302 479 849 1337 974 984 1540 863 902 1125 1600 1668 1637 1613 1449 1345 918 831 713 515 503 372
16 125 51 0 1 0 1225 1437 1318 1330 1412 1749 1628 1190 999 843 816 696 969 320 633 795 952 1392 1594 1198 1154 1403 1376 1236 979 1235 1276 787 417 1081 1478 1291 713 705 736 518 335
32 96 266 154 205 146 345 1692 1664 1525 1650 1551 1715 1783 1511 1467 1093 1249 797 862 980 1103 1358 1457 1474 1058 998 1143 1307 1305 1292 1213 1459 941 783 829 847 983 1069 742 628 460 275